This demonstration page uses our WeatherBlox Daily Observations layout. Learn more.

Left ArrowRight Arrow

Hourly Observations for February 22, 2022

Temp ( °F °C ) Dew Point ( °F °C ) Humidity (%) Winds ( mph kmh ) Pressure ( in mb ) Visibility ( mi km ) Precip ( " mm )
12:16 am 00:16 Windy with Snow Likely 1 -17 -2 -19 85 85 NNW 22 35 30.24 1024 3 4 0.00 0.00
12:53 am 00:53 Windy with Snow Likely 1 -17 -4 -20 78 78 N 25 41 30.23 1024 2 3 0.00 0.00
12:56 am 00:56 Windy with Snow Likely 1 -17.2 -3 -19.4 83 83 N 29 46 30.09 1019 2 3 0.00 0.00
1:29 am 01:29 Windy with Snow Likely 1 -17 -4 -20 78 78 N 25 41 30.24 1024 2 3 0.00 0.00
1:56 am 01:56 Windy with Snow Likely 1 -17.2 -4 -20 79 79 N 26 43 30.11 1020 3 4 0.00 0.00
2:36 am 02:36 Windy with Snow Likely 0 -18 -6 -21 78 78 N 30 48 30.27 1025 3 5 0.00 0.00
2:56 am 02:56 Windy with Snow Likely -1 -18.3 -6 -21.1 79 79 NNW 23 37 30.16 1021 4 6 0.00 0.00
3:19 am 03:19 Windy with Snow Likely 0 -18 -8 -22 71 71 NNW 28 44 30.29 1026 2 3 0.00 0.00
3:56 am 03:56 Windy with Snow Likely -2 -18.9 -7 -21.7 79 79 N 29 46 30.17 1022 3 4 0.00 0.00
4:09 am 04:09 Windy with Snow Likely -2 -19 -8 -22 77 77 N 25 41 30.32 1027 3 5 0.00 0.00
4:56 am 04:56 Windy with Snow Likely -2 -18.9 -8 -22.2 75 75 NNW 28 44 30.19 1022 6 10 0.00 0.00
5:56 am 05:56 Windy with Snow Likely -2 -18.9 -9 -22.8 72 72 NNW 25 41 30.23 1024 8 13 0.00 0.00
6:56 am 06:56 Windy with Snow Likely -3 -19.4 -9 -22.8 75 75 NNW 22 35 30.26 1025 5 8 0.00 0.00
7:56 am 07:56 Windy with Snow Likely -3 -19.4 -10 -23.3 71 71 NNW 29 46 30.30 1026 4 6 0.00 0.00
8:18 am 08:18 Windy with Snow Likely -2 -19 -9 -23 71 71 NNW 25 41 30.47 1032 3 4 0.00 0.00
8:43 am 08:43 Windy with Snow Likely -2 -19 -9 -23 71 71 NNW 26 43 30.46 1032 2 3 0.00 0.00
8:56 am 08:56 Windy with Snow Likely -2 -18.9 -10 -23.3 68 68 N 28 44 30.33 1027 2 2 0.00 0.00
9:08 am 09:08 Windy with Snow Likely -2 -19 -9 -23 71 71 NNW 26 43 30.46 1032 3 4 0.00 0.00
9:29 am 09:29 Windy with Snow Likely 0 -18 -9 -23 65 65 N 24 39 30.45 1031 5 8 0.00 0.00
9:56 am 09:56 Windy with Snow Likely -1 -18.3 -9 -22.8 68 68 NNW 25 41 30.38 1029 8 13 0.00 0.00
10:24 am 10:24 Windy with Snow Likely 0 -18 -8 -22 71 71 NNW 22 35 30.50 1033 9 14 0.00 0.00
10:56 am 10:56 Windy with Snow Likely 2 -16.7 -7 -21.7 65 65 N 26 43 30.37 1029 8 13 0.00 0.00
11:56 am 11:56 Windy with Snow Likely 5 -15 -5 -20.6 63 63 NNW 22 35 30.39 1029 9 14 0.00 0.00
12:56 pm 12:56 Cloudy 8 -13.3 -3 -19.4 60 60 NNW 25 41 30.38 1029 10 16 0.00 0.00
1:56 pm 13:56 Partly Cloudy 11 -11.7 -1 -18.3 58 58 N 25 41 30.40 1029 10 16 0.00 0.00
2:16 pm 14:16 Mostly Cloudy 10 -12 0 -18 61 61 NNW 23 37 30.47 1032 10 16 0.00 0.00
2:56 pm 14:56 Partly Cloudy 12 -11.1 -1 -18.3 56 56 N 23 37 30.43 1031 10 16 0.00 0.00
3:56 pm 15:56 Sunny 12 -11.1 -1 -18.3 56 56 N 26 43 30.45 1031 10 16 0.00 0.00
4:56 pm 16:56 Cloudy 9 -12.8 -3 -19.4 58 58 N 24 39 30.50 1033 10 16 0.00 0.00
5:56 pm 17:56 Partly Cloudy 7 -13.9 -5 -20.6 57 57 N 23 37 30.54 1034 10 16 0.00 0.00
6:56 pm 18:56 Cloudy 5 -15 -6 -21.1 60 60 N 25 41 30.59 1036 10 16 0.00 0.00
7:56 pm 19:56 Partly Cloudy 3 -16.1 -7 -21.7 62 62 NNW 21 33 30.66 1038 10 16 0.00 0.00
8:56 pm 20:56 Partly Cloudy 1 -17.2 -9 -22.8 62 62 N 24 39 30.68 1039 10 16 0.00 0.00
9:56 pm 21:56 Mostly Clear -1 -18.3 -9 -22.8 68 68 N 20 31 30.70 1040 10 16 0.00 0.00
10:56 pm 22:56 Clear -2 -18.9 -10 -23.3 68 68 NNW 18 30 30.69 1039 10 16 0.00 0.00
11:56 pm 23:56 Mostly Clear -3 -19.4 -11 -23.9 68 68 N 18 30 30.71 1040 10 16 0.00 0.00

Powered by AerisWeather